Location: The Saddle
(36.8333°N, 80.3417°W)
Time: 06:49:11
(UTC-05:00)

Vanguard 2 Rocket - Visible Passes

Search period start: 30 January 2023 00:00
Search period end: 09 February 2023 00:00
Orbit: 556 x 3318 km, 32.9° (Epoch: 30 January)

Date Brightness Start Highest point End Pass type
(mag) Time Alt. Az. Time Alt. Az. Time Alt. Az.
30 Jan 9.9 18:04:28 10° WSW 18:09:09 19° SSW 18:15:36 10° SSE visible
01 Feb 10.4 18:21:12 10° SSW 18:21:50 10° SSW 18:22:29 10° SSW visible
06 Feb 10.2 06:36:52 10° S 06:41:36 14° SSE 06:45:23 10° SE visible
07 Feb 10.5 05:38:23 10° SSE 05:40:34 11° SSE 05:42:33 10° SE visible
08 Feb 9.8 06:46:00 10° SSW 06:54:12 23° SSE 06:59:47 10° ESE visible
